Regional Weather Roundup
Issued by NWS

Home | Current Version | Previous Version | Text Only | Print | Product List | Glossary Off
Versions: 1 2 3 4 5 6 7 8 9 10 11 12 13 14 15 16 17 18 19 20 21 22 23 24 25 26 27 28

000
ASUS45 KGTF 270110
RWRMT
MONTANA HOURLY WEATHER ROUNDUP
NATIONAL WEATHER SERVICE GREAT FALLS MT
700 PM MDT SUN APR 26 2015

NOTE: "FAIR" INDICATES FEW OR NO CLOUDS BELOW 12000 FEET WITH NO
SIGNIFICANT WEATHER AND/OR OBSTRUCTIONS TO VISIBILITY.

MTZ001>007-043-270200-
WEST OF THE DIVIDE

CITY           SKY/WX    TMP DP  RH WIND       PRES   REMARKS
KALISPELL      CLOUDY    51  35  54 SW13      30.16R
MISSOULA       PTSUNNY   46  38  73 S7        30.21R
BUTTE          CLOUDY    39  28  64 W9        30.17R
DEER LODGE       N/A     41  30  65 N9        30.22R
EUREKA           N/A     57  30  35 SW3       30.16S
HAMILTON         N/A     45  34  65 S1        30.21R
LIBBY            N/A     57  25  28 CALM      30.16S
$$

MTZ008-052>055-270200-
SOUTHWEST MONTANA

CITY           SKY/WX    TMP DP  RH WIND       PRES   REMARKS
BOZEMAN        CLOUDY    40  35  83 W8        30.17R
DILLON         CLOUDY    41  32  70 NE6       30.14R
$$

MTZ009-010-012-014-046-048-049-054-270200-
EAST SLOPES AND CENTRAL MONTANA

CITY           SKY/WX    TMP DP  RH WIND       PRES   REMARKS
CUT BANK       SUNNY     47  28  47 S10       30.15F
GREAT FALLS    CLOUDY    41  31  67 SW6       30.20S
MALMSTROM AFB  PTSUNNY   42  29  58 SW2       30.21S
HELENA         CLOUDY    40  33  76 NW5       30.20S
$$

MTZ011-013-016-021-045-047-050-051-270200-
NORTH CENTRAL MONTANA

CITY           SKY/WX    TMP DP  RH WIND       PRES   REMARKS
HAVRE          CLOUDY    44  30  57 CALM      30.22S
LEWISTOWN      LGT SNOW  35  32  88 NW3       30.21S FOG
CHINOOK          N/A     43  28  56 CALM      30.23F
FORT BENTON      N/A     48  28  46 S5        30.22F
$$

MTZ017>020-022>042-056>058-061-062-270200-
EASTERN PLAINS

CITY           SKY/WX    TMP DP  RH WIND       PRES   REMARKS
BAKER          CLOUDY    42  40  92 N9        30.14S
BILLINGS       LGT RAIN  37  35  92 NE13      30.21R WCI  29
GLASGOW        CLOUDY    43  32  65 W8        30.21R
JORDAN           N/A     41  32  70 N10       30.21R
LIVINGSTON     CLOUDY    40  33  76 E14       30.15R
MILES CITY     LGT RAIN  38  35  89 N14       30.19R WCI  30
SIDNEY         CLOUDY    48  34  57 NW9       30.17R
WOLF POINT     CLOUDY    47  36  65 NW13      30.19S
BIG TIMBER       N/A     37  36  93 E6        30.19R
FORSYTH          N/A     39  37  93 N8        30.21R
PLENTYWOOD       N/A     46  34  61 NW9       30.17R
POPLAR           N/A     48  36  61 W6        30.19S
$$

REGIONAL REPORTS...DAKOTAS

CITY           SKY/WX    TMP DP  RH WIND       PRES   REMARKS
WILLISTON      CLOUDY    53  34  48 N8        30.15R
MINOT          LGT RAIN  49  45  86 SW3       30.13S
DICKINSON      CLOUDY    44  41  89 N7        30.11S
BEACH          LGT RAIN  41  41 100 N6        30.15F
CROSBY         FAIR      50  37  62 N8        30.16R
WATFORD CITY   CLOUDY    50  39  66 S6        30.13R
BISMARCK       CLOUDY    54  48  80 N10       30.11R
GRAND FORKS    MOCLDY    64  29  26 CALM      30.10S
FARGO          PTCLDY    65  23  20 CALM      30.10R
BUFFALO SD       N/A     47  47 100 NE16      30.02R
RAPID CITY     CLOUDY    50  46  86 CALM      30.07R
$$

REGIONAL REPORTS...WYOMING/IDAHO/WASHINGTON

CITY           SKY/WX    TMP DP  RH WIND       PRES   REMARKS
GILLETTE       CLOUDY    40  38  93 N15       30.09R
SHERIDAN       CLOUDY    40  36  86 N12       30.14R
BUFFALO WY     CLOUDY    39  36  89 N12       30.11R WCI  32
CODY           CLOUDY    36  34  93 N15       30.12R WCI  26
YELLOWSTONE LA   N/A     33  32  96 CALM      30.09R
IDAHO FALLS    PTSUNNY   49  37  63 NE10      30.08R
SALMON         CLOUDY    46  30  53 NE8G17    30.15S
BOISE          PTSUNNY   59  20  22 NW16G23   30.13R
SPOKANE        PTSUNNY   55  26  32 VRB5      30.20S
$$

REGIONAL REPORTS...ALBERTA

CITY           SKY/WX    TMP DP  RH WIND       PRES   REMARKS
EDMONTON       SUNNY     48  21  34 S9        30.10S
CALGARY        MOSUNNY   54  23  30 S14       30.07S
LETHBRIDGE     MOSUNNY   52  28  40 S13       30.13S
MEDICINE HAT   CLOUDY    48  32  53 S5        30.19S
$$

REGIONAL REPORTS...SASKATCHEWAN

CITY           SKY/WX    TMP DP  RH WIND       PRES   REMARKS
SWIFT CURRENT  SUNNY     46  34  61 NW6       30.16S
REGINA         CLOUDY    39  34  81 W12       30.19R WCI  32
SASKATOON      PTSUNNY   39  32  75 SE5       30.19S
$$



USA.gov is the U.S. government's official web portal to all federal, state and local government web resources and services.